Regional Weather Roundup
Issued by NWS

Home | Current Version | Previous Version | Text Only | Print | Product List | Glossary On
Versions: 1 2 3 4 5 6 7 8 9 10 11 12 13 14 15 16 17 18 19 20 21 22 23 24 25 26 27 28 29 30 31 32 33 34 35 36 37 38 39 40 41 42 43 44 45 46 47 48 49 50
000
ASUS44 KFWD 232001
RWRTX
NORTH TEXAS HOURLY WEATHER ROUNDUP
NATIONAL WEATHER SERVICE FORT WORTH TX
300 PM CDT WED APR 23 2014

NOTE: "FAIR" INDICATES FEW OR NO CLOUDS BELOW 12,000 FEET WITH NO
SIGNIFICANT WEATHER AND/OR OBSTRUCTIONS TO VISIBILITY.

TXZ118-119-232100-
DALLAS/FORT WORTH METROPLEX

CITY           SKY/WX    TMP DP  RH WIND       PRES   REMARKS
DFW AIRPORT    MOSUNNY   86  60  41 S14G23    29.81F
DALLAS LOVE    MOSUNNY   86  58  38 S15G24    29.82F
FTW MEACHAM    SUNNY     85  61  44 SE15G26   29.80F
DAL-EXECUTIVE  MOSUNNY   86  61  42 S13G24    29.82F
FTW-ALLIANCE   MOSUNNY   83  60  45 SE18G25   29.80F
FTW-NAS-JRB    MOSUNNY   88  56  33 S14G23    29.85F
FTW-SPINKS     SUNNY     86  57  37 S21       29.83F
ARLINGTON      MOSUNNY   86  58  38 SE16G30   29.81F
GRAND PRAIRIE  SUNNY     84  55  37 S14G25    29.84F
ADDISON        MOSUNNY   86  57  37 S14G22    29.83
MESQUITE       SUNNY     82  61  47 SE18      29.84F
LANCASTER      SUNNY     83  60  44 S15       29.85F
$$

TXZ091>094-102>105-117-120-121-131>134-232100-
NORTH CENTRAL TEXAS

CITY           SKY/WX    TMP DP  RH WIND       PRES   REMARKS
BRIDGEPORT     SUNNY     83  56  38 S12G17    29.82F
DENTON         SUNNY     84  59  42 S17G26    29.81F
MCKINNEY       SUNNY     83  61  47 S18G25    29.83F
ROCKWALL       MOSUNNY   85  63  46 E14G21    29.84F
TERRELL        SUNNY     83  62  49 SE15      29.86F
WAXAHACHIE     MOSUNNY   82  60  47 SE12G18   29.85F
CLEBURNE       SUNNY     84  57  39 SE16      29.84F
$$

TXZ083>090-098>101-113>116-127>130-139>142-154-155-232100-
WESTERN NORTH TEXAS

CITY           SKY/WX    TMP DP  RH WIND       PRES   REMARKS
WICHITA FALLS  MOSUNNY   86  59  39 S17G28    29.75F
ABILENE        PTSUNNY   89  54  30 S20G32    29.76F
ABILENE-DYESS  PTSUNNY   90  56  31 S26G37    29.73F
MINERAL WELLS  MOSUNNY   87  56  34 S14       29.78F
STEPHENVILLE   MOSUNNY   86  55  35 SE14G21   29.85F
COMANCHE       MOSUNNY   87  55  32 S16       29.82F
BROWNWOOD      MOSUNNY   86  55  35 S15G21    29.79F
$$

TXZ143>147-156>162-174-175-232100-
CENTRAL TEXAS

CITY           SKY/WX    TMP DP  RH WIND       PRES   REMARKS
WACO           MOSUNNY   85  61  44 S14       29.83F
WACO-TSTC      MOSUNNY   86  63  45 S12G18    29.84F
WACO-MCGREGOR  MOSUNNY   88  57  35 S13G24    29.85F
CORSICANA      MOSUNNY   84  60  44 S14       29.86F
TEMPLE         SUNNY     86  57  37 SE21      29.86F
KILLEEN        MOSUNNY   88  61  40 S18G24    29.83F
KILLEEN-SKYLRK MOSUNNY  N/A N/A N/A S14G22    29.82F
HAMILTON       MOSUNNY   88  55  32 S14G28    29.84F
LAMPASAS       MOSUNNY   88  62  42 S10G20    29.82F
$$

TXZ095>097-106>112-122>126-135>138-148>153-164>167-232100-
EAST TEXAS

CITY           SKY/WX    TMP DP  RH WIND       PRES   REMARKS
PARIS          MOSUNNY   81  61  50 SE14      29.88F
MINEOLA        MOSUNNY   84  57  39 S9        29.88F
TYLER          MOSUNNY   83  58  42 S8G18     29.88F
LONGVIEW       SUNNY     83  56  39 S10       29.88F
PALESTINE      PTSUNNY   83  58  42 SE7       29.90F
NACOGDOCHES    MOSUNNY   82  61  47 S12       29.90F
LUFKIN         SUNNY     87  59  38 SE6       29.89F
$$

SUPPLEMENTAL OBSERVATIONS (CENTRAL)

CITY           SKY/WX    TMP DP  RH WIND       PRES   REMARKS
$$

SUPPLEMENTAL OBSERVATIONS (WEST)

CITY           SKY/WX    TMP DP  RH WIND       PRES   REMARKS
$$

SUPPLEMENTAL OBSERVATIONS (EAST)

CITY           SKY/WX    TMP DP  RH WIND       PRES   REMARKS
$$

SUPPLEMENTAL OBSERVATIONS ARE A COLLECTION OF AUTOMATED INSTRUMENTS
THAT ARE MAINTAINED BY A VARIETY OF FEDERAL AND STATE AGENCIES.
CERTAIN ELEMENTS...SUCH AS HUMIDITY VALUES AND SUSTAINED WIND
SPEEDS...MAY BE APPROXIMATED.




USA.gov is the U.S. government's official web portal to all federal, state and local government web resources and services.